Satellite-Ground Cal/Val Region Overpasses Predictions

Prediction of Satellite NPP Overpassing Cal/Val Region: PacNW

Region Location: (Latitude: 10.00, Longitude: 139.50) to (Latitude: 22.70, Longitude: 165.60).

Table of predicted overpasses for the next 14.0 days since TLE Epoch: 12/13/2020
Interval Starting Time Starting Location Ending Time Ending Location
1 12/13/2020 15:55:06 ( 22.66, 146.07) 12/13/2020 15:58:41 ( 10.04, 143.07)
2 12/14/2020 03:04:11 ( 10.01, 153.60) 12/14/2020 03:07:47 ( 22.69, 150.59)
3 12/14/2020 15:36:05 ( 22.65, 150.82) 12/14/2020 15:39:40 ( 10.03, 147.82)
4 12/15/2020 02:45:09 ( 10.01, 158.36) 12/15/2020 02:48:45 ( 22.69, 155.34)
5 12/15/2020 15:17:03 ( 22.65, 155.58) 12/15/2020 15:20:38 ( 10.02, 152.58)
6 12/16/2020 02:26:08 ( 10.02, 163.11) 12/16/2020 02:29:43 ( 22.64, 160.11)
7 12/16/2020 14:58:01 ( 22.70, 160.35) 12/16/2020 15:01:37 ( 10.02, 157.33)
8 12/17/2020 02:09:51 ( 19.72, 165.59) 12/17/2020 02:10:41 ( 22.65, 164.87)
9 12/17/2020 03:48:36 ( 10.03, 142.49) 12/17/2020 03:52:10 ( 22.59, 139.51)
10 12/17/2020 14:38:59 ( 22.69, 165.10) 12/17/2020 14:42:35 ( 10.01, 162.09)
11 12/17/2020 16:20:29 ( 22.69, 139.72) 12/17/2020 16:20:44 ( 21.81, 139.50)
12 12/18/2020 03:29:35 ( 10.04, 147.25) 12/18/2020 03:33:10 ( 22.66, 144.24)
13 12/18/2020 16:01:28 ( 22.68, 144.48) 12/18/2020 16:05:04 ( 10.00, 141.46)
14 12/19/2020 03:10:34 ( 10.04, 152.00) 12/19/2020 03:14:09 ( 22.67, 149.00)
15 12/19/2020 15:42:26 ( 22.67, 149.23) 12/19/2020 15:46:01 ( 10.05, 146.23)
16 12/20/2020 02:51:32 ( 10.05, 156.75) 12/20/2020 02:55:07 ( 22.67, 153.75)
17 12/20/2020 15:23:25 ( 22.67, 153.98) 12/20/2020 15:27:00 ( 10.05, 150.98)
18 12/21/2020 02:32:30 ( 10.00, 161.52) 12/21/2020 02:36:06 ( 22.68, 158.51)
19 12/21/2020 15:04:23 ( 22.66, 158.74) 12/21/2020 15:07:58 ( 10.04, 155.74)
20 12/22/2020 02:14:18 ( 12.95, 165.60) 12/22/2020 02:17:04 ( 22.69, 163.26)
21 12/22/2020 03:54:58 ( 10.01, 140.90) 12/22/2020 03:56:40 ( 16.01, 139.51)
22 12/22/2020 14:45:22 ( 22.65, 163.49) 12/22/2020 14:48:57 ( 10.03, 160.49)
23 12/23/2020 03:35:57 ( 10.02, 145.65) 12/23/2020 03:39:32 ( 22.65, 142.65)
24 12/23/2020 14:29:29 ( 11.55, 165.60) 12/23/2020 14:29:55 ( 10.02, 165.25)
25 12/23/2020 16:07:49 ( 22.70, 142.88) 12/23/2020 16:11:25 ( 10.02, 139.87)
26 12/24/2020 03:16:55 ( 10.03, 150.41) 12/24/2020 03:20:30 ( 22.65, 147.40)
27 12/24/2020 15:48:48 ( 22.69, 147.64) 12/24/2020 15:52:24 ( 10.01, 144.62)
28 12/25/2020 02:57:54 ( 10.04, 155.16) 12/25/2020 03:01:29 ( 22.66, 152.16)
29 12/25/2020 15:29:46 ( 22.68, 152.39) 12/25/2020 15:33:22 ( 10.00, 149.38)
30 12/26/2020 02:38:52 ( 10.05, 159.91) 12/26/2020 02:42:27 ( 22.67, 156.91)
31 12/26/2020 15:10:45 ( 22.67, 157.14) 12/26/2020 15:14:20 ( 10.05, 154.14)
